• In Kazakhstan
  • List of Countries
  • For 7 days
  • Water Temperature
  • Satellite Maps
  • Weather Map
  • News
  • Weather Widgets
  • user-avatar
    Login

    Hourly Weather Kaprun

    Today, 21 October, Saturday

    Time Temperature Precipitation Wind Pressure Humidity
    00:00 +3°C° 0 mm 1 mps 598 mmHg 76%
    01:00 +3°C° 0 mm 1 mps 598 mmHg 76%
    02:00 +3°C° 0 mm 1 mps 598 mmHg 76%
    03:00 +3°C° 0 mm 1 mps 597 mmHg 76%
    04:00 +3°C° 0 mm 1 mps 597 mmHg 76%
    05:00 +3°C° 0 mm 1 mps 597 mmHg 76%
    06:00 +3°C° 0 mm 1 mps 597 mmHg 77%
    07:00 +2°C° 0 mm 1 mps 597 mmHg 78%
    08:00 +5°C° 0 mm 1 mps 599 mmHg 71%
    09:00 +8°C° 0 mm 1 mps 600 mmHg 65%
    10:00 +9°C° 0 mm 0 mps 601 mmHg 58%
    11:00 +10°C° 0 mm 0 mps 601 mmHg 57%
    12:00 +11°C° 0 mm 1 mps 601 mmHg 56%
    13:00 +12°C° 0 mm 1 mps 601 mmHg 55%
    14:00 +11°C° 0 mm 1 mps 601 mmHg 61%
    15:00 +10°C° 0 mm 1 mps 600 mmHg 67%
    16:00 +9°C° 0 mm 0 mps 599 mmHg 73%
    17:00 +7°C° 0 mm 0 mps 599 mmHg 79%
    18:00 +5°C° 0 mm 0 mps 598 mmHg 85%
    19:00 +3°C° 0 mm 0 mps 597 mmHg 92%
    20:00 +4°C° 0 mm 1 mps 597 mmHg 91%
    21:00 +4°C° 0 mm 1 mps 597 mmHg 90%
    22:00 +4°C° 0 mm 1 mps 597 mmHg 89%
    23:00 +4°C° 0.1 mm 1 mps 597 mmHg 88%

    Tomorrow, 22 October, Sunday

    Time Temperature Precipitation Wind Pressure Humidity
    00:00 +3°C° 0.1 mm 1 mps 597 mmHg 88%
    01:00 +3°C° 0.1 mm 1 mps 597 mmHg 88%
    02:00 +3°C° 0.7 mm 1 mps 597 mmHg 90%
    03:00 +3°C° 0.7 mm 1 mps 597 mmHg 92%
    04:00 +2°C° 0.7 mm 1 mps 596 mmHg 94%
    05:00 +2°C° 0.8 mm 1 mps 596 mmHg 95%
    06:00 +1°C° 0.8 mm 2 mps 596 mmHg 95%
    07:00 +1°C° 0.8 mm 2 mps 596 mmHg 96%
    08:00 +1°C° 0.9 mm 2 mps 596 mmHg 95%
    09:00 +1°C° 0.9 mm 2 mps 596 mmHg 95%
    10:00 +1°C° 0.9 mm 2 mps 596 mmHg 94%
    11:00 +1°C° 1.4 mm 2 mps 595 mmHg 93%
    12:00 -1°C° 1.4 mm 2 mps 595 mmHg 93%
    13:00 -1°C° 1.4 mm 2 mps 595 mmHg 92%
    14:00 -1°C° 1.1 mm 3 mps 594 mmHg 92%
    15:00 -2°C° 1.1 mm 3 mps 594 mmHg 93%
    16:00 -2°C° 1.1 mm 3 mps 594 mmHg 93%
    17:00 -4°C° 0.8 mm 3 mps 594 mmHg 93%
    18:00 -4°C° 0.8 mm 3 mps 594 mmHg 94%
    19:00 -5°C° 0.8 mm 3 mps 594 mmHg 94%
    20:00 -5°C° 0.9 mm 3 mps 594 mmHg 94%
    21:00 -5°C° 0.9 mm 3 mps 594 mmHg 95%
    22:00 -6°C° 0.9 mm 3 mps 594 mmHg 95%
    23:00 -6°C° 0.4 mm 3 mps 594 mmHg 94%

    Day after tomorrow, 23 October, Monday

    Time Temperature Precipitation Wind Pressure Humidity
    00:00 -6°C° 0.4 mm 3 mps 594 mmHg 94%
    01:00 -6°C° 0.4 mm 3 mps 594 mmHg 94%
    02:00 -6°C° 0.4 mm 3 mps 594 mmHg 94%
    03:00 -6°C° 0.4 mm 3 mps 594 mmHg 95%
    04:00 -6°C° 0.4 mm 3 mps 594 mmHg 95%
    05:00 -6°C° 0.6 mm 3 mps 594 mmHg 95%
    06:00 -6°C° 0.6 mm 3 mps 594 mmHg 95%
    07:00 -6°C° 0.6 mm 3 mps 594 mmHg 95%
    08:00 -6°C° 0.5 mm 3 mps 594 mmHg 93%
    09:00 -5°C° 0.5 mm 3 mps 594 mmHg 91%
    10:00 -4°C° 0.5 mm 3 mps 595 mmHg 90%
    11:00 -4°C° 0.5 mm 3 mps 595 mmHg 89%
    12:00 -4°C° 0.5 mm 3 mps 595 mmHg 89%
    13:00 -4°C° 0.5 mm 3 mps 595 mmHg 89%
    14:00 -4°C° 0.5 mm 3 mps 595 mmHg 89%
    15:00 -4°C° 0.5 mm 3 mps 595 mmHg 90%
    16:00 -4°C° 0.5 mm 3 mps 595 mmHg 91%
    17:00 -5°C° 0.7 mm 3 mps 596 mmHg 92%
    18:00 -5°C° 0.7 mm 3 mps 596 mmHg 93%
    19:00 -5°C° 0.7 mm 3 mps 596 mmHg 94%
    20:00 -5°C° 0.7 mm 3 mps 596 mmHg 94%
    21:00 -5°C° 0.7 mm 3 mps 596 mmHg 95%
    22:00 -5°C° 0.7 mm 3 mps 597 mmHg 95%
    23:00 -5°C° 0.5 mm 3 mps 597 mmHg 95%

    24 October, Tuesday

    Time Temperature Precipitation Wind Pressure Humidity
    00:00 -5°C° 0.5 mm 3 mps 597 mmHg 95%
    01:00 -5°C° 0.5 mm 3 mps 597 mmHg 95%
    02:00 -5°C° 0.5 mm 3 mps 597 mmHg 95%
    03:00 -5°C° 0.5 mm 3 mps 597 mmHg 95%
    04:00 -5°C° 0.5 mm 3 mps 597 mmHg 95%
    05:00 -5°C° 0.5 mm 3 mps 597 mmHg 95%
    06:00 -5°C° 0.5 mm 3 mps 597 mmHg 95%
    07:00 -5°C° 0.5 mm 3 mps 598 mmHg 95%
    08:00 -4°C° 0.4 mm 3 mps 598 mmHg 93%
    09:00 -4°C° 0.4 mm 3 mps 598 mmHg 92%
    10:00 -2°C° 0.4 mm 3 mps 599 mmHg 90%
    11:00 -2°C° 0.3 mm 3 mps 599 mmHg 90%
    12:00 -1°C° 0.3 mm 3 mps 599 mmHg 89%
    13:00 -1°C° 0.3 mm 3 mps 599 mmHg 89%
    14:00 -1°C° 0.1 mm 3 mps 600 mmHg 89%
    15:00 -1°C° 0.1 mm 3 mps 600 mmHg 90%
    16:00 -2°C° 0.1 mm 3 mps 600 mmHg 91%
    17:00 -3°C° 0 mm 2 mps 600 mmHg 92%
    18:00 -4°C° 0 mm 2 mps 600 mmHg 94%
    19:00 -5°C° 0 mm 2 mps 600 mmHg 95%
    20:00 -5°C° 0 mm 2 mps 600 mmHg 94%
    21:00 -5°C° 0 mm 2 mps 600 mmHg 94%
    22:00 -6°C° 0 mm 2 mps 600 mmHg 93%
    23:00 -6°C° 0 mm 2 mps 600 mmHg 91%

    25 October, Wednesday

    Time Temperature Precipitation Wind Pressure Humidity
    00:00 -6°C° 0 mm 2 mps 600 mmHg 89%
    01:00 -6°C° 0 mm 2 mps 600 mmHg 87%
    02:00 -6°C° 0 mm 2 mps 600 mmHg 84%
    03:00 -6°C° 0 mm 2 mps 599 mmHg 82%
    04:00 -6°C° 0 mm 2 mps 599 mmHg 80%
    05:00 -6°C° 0 mm 2 mps 599 mmHg 79%
    06:00 -6°C° 0 mm 2 mps 599 mmHg 78%
    07:00 -6°C° 0 mm 2 mps 599 mmHg 78%
    08:00 -4°C° 0 mm 2 mps 600 mmHg 79%
    09:00 0°C° 0 mm 1 mps 601 mmHg 80%
    10:00 +3°C° 0 mm 1 mps 602 mmHg 82%
    11:00 +3°C° 0 mm 1 mps 602 mmHg 81%
    12:00 +3°C° 0 mm 2 mps 602 mmHg 81%
    13:00 +3°C° 0 mm 2 mps 602 mmHg 81%
    14:00 +3°C° 0 mm 2 mps 602 mmHg 83%
    15:00 +2°C° 0 mm 2 mps 602 mmHg 84%
    16:00 +2°C° 0 mm 1 mps 601 mmHg 86%
    17:00 -1°C° 0 mm 2 mps 601 mmHg 85%
    18:00 -2°C° 0 mm 2 mps 601 mmHg 84%
    19:00 -4°C° 0 mm 2 mps 601 mmHg 83%
    20:00 -4°C° 0 mm 2 mps 601 mmHg 81%
    21:00 -4°C° 0 mm 2 mps 601 mmHg 78%
    22:00 -4°C° 0 mm 2 mps 601 mmHg 76%
    23:00 -4°C° 0 mm 2 mps 601 mmHg 75%

    26 October, Thursday

    Time Temperature Precipitation Wind Pressure Humidity
    00:00 -4°C° 0 mm 2 mps 601 mmHg 73%
    01:00 -5°C° 0 mm 2 mps 601 mmHg 72%
    02:00 -5°C° 0 mm 2 mps 601 mmHg 72%
    03:00 -5°C° 0 mm 2 mps 601 mmHg 71%
    04:00 -5°C° 0 mm 2 mps 601 mmHg 71%
    05:00 -5°C° 0 mm 2 mps 601 mmHg 69%
    06:00 -5°C° 0 mm 2 mps 602 mmHg 67%
    07:00 -5°C° 0 mm 2 mps 602 mmHg 65%
    08:00 -1°C° 0 mm 1 mps 603 mmHg 68%
    09:00 +2°C° 0 mm 1 mps 604 mmHg 70%
    10:00 +4°C° 0 mm 1 mps 605 mmHg 73%
    11:00 +5°C° 0 mm 1 mps 605 mmHg 73%
    12:00 +6°C° 0 mm 1 mps 605 mmHg 73%
    13:00 +6°C° 0 mm 1 mps 605 mmHg 73%
    14:00 +5°C° 0 mm 1 mps 604 mmHg 74%
    15:00 +5°C° 0 mm 1 mps 604 mmHg 75%
    16:00 +4°C° 0 mm 1 mps 604 mmHg 76%
    17:00 +2°C° 0 mm 1 mps 603 mmHg 74%
    18:00 +1°C° 0 mm 1 mps 603 mmHg 72%
    19:00 -1°C° 0 mm 1 mps 603 mmHg 69%
    20:00 -1°C° 0 mm 1 mps 603 mmHg 66%
    21:00 -1°C° 0 mm 1 mps 603 mmHg 62%
    22:00 -1°C° 0 mm 1 mps 603 mmHg 59%
    23:00 -1°C° 0 mm 1 mps 603 mmHg 57%
    Show more